AMC-8 (GE-8)

导读

AMC-8(曾用名GE-8)是由SES运营的商用通信卫星,于2000年12月20日发射升空。该卫星定位于地球静止轨道,主要覆盖北美地区,提供电视广播、宽带网络传输及多媒体通信服务。它搭载了多台C波段转发器,信号覆盖范围广,服务稳定可靠,满足了北美地区对通信容量不断增长的需求,是SES AMC系列卫星中承担区域通信服务的重要一员,长期为广播电视、企业专网等领域提供优质中继传输支持。

基本信息
目录编号:
26639
目录名称:
AMC-8 (GE-8)
国际标识:
2000-081B
轨道中心:
EARTH
卫星名称:
AMC-8 (GE-8)
卫星全名:
--
卫星状态:
在轨 (已飞行9314 天)
发射日期:
2000-12-20 UTC
国别 :
(SES)
星等 :
--
轨道信息
数据来源 国际轨道数据 AOE轨道数据
星历时间 2026-06-20T01:57:11+0800
1天前
查看轨道信息
2026-06-19T08:00:00+0800
2天前
查看轨道信息
半长轴 42481.514km 42481.657km
偏心率 0.000407 0.0004281
轨道倾角 6.127° 6.125°
近地点辐角 258.299° 263.001°
升交点赤经 72.528° 72.538°
平近点角 220.408° 308.676°
近地点 36086.087km 36085.333km
远地点 36120.667km 36121.707km
周期 1452.311分钟 1452.319分钟
每日圈数 0.991523 0.991518
详细信息
使用方式:
暂无
2D轨道图
3D轨道图
轨道高度分析图
轨道倾角分析图
轨道综合分析图
查看轨道综合分析图